Wind_Speed
35 39 41 42 44 44 49 51 56 51 53 46 46 39 35 28 23 10 20 14 12 13 13 15 13 13 15 20 26 23 25 19 26 30 33 40 45 45 43 40 35 34 31 26
35 39 43 45 46 48 47 48 53 52 52 47 43 36 37 35 40 16 20 14 10 9 11 13 10 9 15 16 22 25 27 23 22 28 41 40 55 48 44 42 39 36 30 26
38 39 40 43 36 37 37 31 27 30 30 42 37 34 36 28 24 13 16 12 8 6 6 10 12 9 12 13 17 23 22 21 9 25 44 50 42 52 46 44 40 36 30 28
35 35 34 33 28 22 10 15 22 23 18 20 28 30 26 20 14 16 19 16 9 7 10 9 10 10 11 13 16 23 23 22 20 16 18 29 34 46 43 45 40 38 35 33
31 34 33 25 16 19 23 21 16 8 1 9 12 18 25 17 14 10 13 10 8 9 11 10 9 11 9 12 12 16 20 22 19 16 17 29 30 44 48 44 43 40 38 36
10 4 3 6 13 14 17 11 11 1 2 9 7 21 19 16 13 8 10 9 10 11 13 11 9 9 9 11 11 15 16 18 19 22 22 23 21 29 34 38 35 39 37 40
6 5 7 7 7 12 10 11 7 9 13 10 13 14 19 16 12 10 7 6 7 8 9 11 11 10 11 11 13 14 15 21 21 27 28 31 27 30 29 31 35 39 40 39
4 13 8 5 2 5 4 5 8 11 10 13 14 12 9 8 5 5 6 4 9 10 11 12 13 15 16 15 14 15 17 18 23 27 31 35 38 37 34 33 48 37 39 39
1 1 3 2 2 4 4 8 16 16 11 10 13 8 4 5 3 7 9 11 11 11 13 15 16 17 19 20 18 18 18 20 21 24 26 33 37 39 40 36 40 42 43 39
2 3 3 5 6 9 9 13 16 19 16 8 7 6 6 6 9 10 10 12 14 14 17 19 17 17 18 19 22 23 23 23 23 25 26 28 34 39 41 44 49 49 45 46
1 6 9 9 11 12 11 15 15 13 9 6 6 5 5 6 9 11 13 15 16 17 18 19 23 26 26 24 22 24 26 27 29 30 28 30 32 34 36 40 45 47 49 48
4 6 12 13 11 11 12 11 9 7 4 3 4 3 2 4 7 9 11 14 15 18 20 20 22 25 29 30 30 30 30 30 30 31 32 34 35 35 38 37 35 35 38 44
10 5 6 12 10 10 9 9 7 4 4 5 3 2 7 11 11 12 12 13 15 18 20 21 22 24 26 27 31 31 31 32 33 33 34 33 33 34 34 35 33 33 34 37
9 8 7 8 6 6 6 5 3 1 2 3 5 9 11 11 10 10 11 11 13 15 17 20 22 22 25 25 26 27 27 28 29 33 34 36 36 36 35 35 36 36 36 34
12 9 9 11 8 6 3 2 0 2 4 7 10 12 13 13 12 14 16 17 19 20 20 21 23 25 26 26 25 25 27 29 29 31 34 37 37 39 39 39 38 38 38 41
15 13 12 11 12 9 8 9 5 4 6 10 10 12 12 14 16 20 23 24 27 29 29 30 31 33 34 35 36 36 36 36 36 37 37 38 39 40 41 42 44 45 45 45
20 21 19 16 14 12 10 10 10 14 14 12 13 14 17 21 24 27 26 25 24 24 25 26 27 28 30 33 35 38 42 44 45 46 46 47 47 47 48 49 49 49 50 50
16 21 20 20 20 19 15 12 11 12 13 15 18 22 24 24 22 21 21 23 24 26 28 30 32 34 35 38 40 41 43 45 46 47 47 48 50 51 53 55 56 57 57 58
8 13 9 6 9 9 9 10 13 14 16 19 20 20 21 21 23 26 29 32 34 36 37 39 40 41 43 45 45 46 47 49 52 54 56 57 58 59 60 61 61 63 63 64
9 13 17 15 13 11 11 14 16 18 17 17 19 21 25 29 33 36 38 40 41 43 44 45 46 48 50 52 53 54 56 58 60 61 62 63 64 64 65 67 68 68 68 67
9 11 12 12 13 15 15 12 11 14 17 21 25 30 33 36 37 38 40 43 45 47 48 49 51 54 57 59 61 63 64 64 64 64 63 63 64 65 64 63 64 65 66 65
8 8 8 9 7 6 7 10 14 19 24 28 31 32 34 36 38 41 43 45 49 50 51 53 57 61 64 67 69 69 67 65 64 64 64 64 64 64 64 63 62 62 62 61
6 5 4 4 5 8 12 17 22 26 27 30 32 34 37 39 42 45 48 50 51 53 56 60 65 68 71 72 71 71 69 66 64 63 61 60 59 59 59 60 62 63 64 64
4 3 4 6 10 15 20 23 24 26 29 33 36 39 42 45 48 52 55 55 56 59 64 68 71 73 73 71 67 63 59 55 53 51 50 50 49 49 50 51 52 54 57 60
4 4 9 14 18 20 22 24 26 31 34 37 42 45 48 50 53 58 60 60 62 67 70 72 73 69 64 59 54 51 48 46 45 44 43 43 44 44 45 46 47 48 48 49
6 11 16 19 20 23 25 29 33 36 40 44 47 52 53 55 59 63 63 65 69 71 73 69 62 56 51 47 44 42 41 41 40 41 41 41 41 41 42 43 44 45 45 46
12 16 20 21 24 26 30 34 38 42 46 49 53 56 57 60 64 66 68 71 74 73 66 57 50 45 42 40 39 39 38 38 38 39 39 40 41 41 41 41 42 43 43 43
Wind_Direction
273 273 274 275 277 278 277 275 273 271 268 267 263 259 251 249 259 269 283 275 263 258 268 253 249 248 266 245 249 232 238 245 254 240 226 217 226 219 216 221 225 233 241 244
271 275 277 277 279 277 277 278 276 274 266 259 255 249 247 253 256 290 267 263 261 250 259 263 251 246 262 255 249 253 249 255 253 215 222 214 213 223 219 216 224 232 240 248
274 276 276 276 275 282 284 273 275 286 271 252 244 240 244 252 265 267 258 240 251 259 274 265 260 252 264 261 238 231 245 241 232 219 221 221 228 214 216 219 224 232 237 247
281 278 276 276 287 274 257 307 286 290 242 233 229 233 234 232 268 261 283 238 254 272 273 285 270 252 254 264 246 237 233 239 231 220 196 193 217 214 211 223 226 231 236 243
282 279 277 277 260 271 267 285 294 318 126 203 206 216 224 260 269 252 253 232 245 248 252 253 263 266 257 262 262 252 242 239 237 230 234 199 229 216 222 220 227 234 238 243
330 330 232 244 283 287 275 293 275 152 9 128 183 217 238 244 194 200 226 243 252 253 251 253 257 263 270 267 269 263 253 238 241 232 244 249 223 230 213 229 227 230 244 240
332 302 297 281 293 274 277 294 247 236 195 208 203 178 175 166 175 186 201 245 265 278 272 259 261 266 267 270 274 269 265 250 233 232 227 225 230 225 224 238 238 240 239 244
277 320 319 315 193 256 265 245 206 180 232 184 152 132 124 120 147 201 215 258 277 281 287 291 288 275 277 273 270 273 267 263 256 253 244 240 243 248 229 235 232 240 241 246
325 285 30 44 247 207 262 187 181 184 134 133 105 87 113 147 226 250 255 262 263 273 281 285 286 288 280 281 280 273 269 264 269 265 257 253 254 250 252 242 245 251 255 252
94 134 129 155 154 185 175 158 156 175 195 173 130 180 191 214 240 255 269 278 285 285 275 271 284 293 293 288 283 283 276 274 270 265 267 259 254 254 254 251 248 252 257 252
260 207 134 108 132 156 164 121 119 117 116 146 204 215 240 262 272 282 284 282 281 278 273 279 281 285 293 292 294 295 291 285 279 276 273 270 267 263 260 256 254 255 254 257
194 145 159 135 127 117 121 127 121 126 161 197 229 197 165 6 342 314 311 305 296 294 298 295 285 274 276 282 285 286 287 286 280 276 274 272 269 265 266 265 262 259 258 257
199 180 137 108 102 109 126 133 124 128 140 164 180 18 5 347 339 328 318 305 301 302 303 304 305 302 292 278 274 273 273 273 274 270 269 268 267 266 264 263 263 260 256 253
180 197 185 158 140 115 106 117 122 114 69 44 6 355 339 319 302 303 305 307 305 305 303 302 301 299 288 284 283 284 287 280 275 273 271 268 268 268 270 271 269 269 267 264
189 190 200 206 199 204 239 319 57 0 357 348 333 317 303 291 296 302 306 306 304 301 298 295 293 293 290 287 283 279 281 281 280 280 278 274 274 267 265 264 262 261 259 254
203 207 204 205 221 230 244 217 249 290 303 295 291 291 286 289 290 296 299 298 295 295 295 291 289 287 286 286 286 285 283 280 278 276 275 275 276 276 276 274 272 267 265 263
216 218 217 210 212 228 228 238 259 276 273 280 277 283 296 304 301 300 300 297 296 296 295 293 292 291 291 290 289 287 285 282 281 280 278 276 274 272 271 270 270 270 271 271
228 229 235 228 222 231 240 244 255 264 274 282 294 295 296 298 296 294 293 295 294 292 290 290 289 290 292 293 292 288 284 281 280 279 278 278 277 277 275 274 271 269 267 265
231 204 209 220 205 204 219 241 260 266 275 286 291 294 295 297 299 298 299 298 297 296 295 293 292 292 295 297 295 292 289 287 286 285 284 283 281 279 276 275 273 271 269 267
161 158 172 187 199 215 227 238 255 273 287 293 294 294 296 298 299 299 299 298 297 296 295 294 294 294 296 298 298 296 295 292 290 288 286 283 280 277 275 273 270 268 267 266
168 167 173 186 205 223 243 262 277 286 291 293 298 301 303 305 306 306 305 304 302 301 299 297 296 298 300 300 299 298 296 294 291 288 285 281 279 277 274 271 269 267 266 266
190 202 214 220 229 246 269 281 287 294 300 303 305 308 310 310 310 310 309 307 304 303 301 300 301 302 302 301 300 297 295 292 289 286 282 279 277 275 273 270 268 266 266 265
248 250 235 240 266 285 294 303 306 308 309 310 313 314 314 315 318 319 317 314 310 307 307 306 305 304 302 300 299 297 294 291 287 284 281 278 276 273 271 269 266 263 263 263
230 231 262 295 311 308 307 309 311 311 311 312 313 315 319 318 319 319 318 315 312 312 309 308 307 305 303 301 298 296 294 291 287 283 280 277 275 272 270 268 266 265 265 264
237 295 317 311 307 306 307 309 309 314 315 317 320 321 322 321 320 319 318 317 315 313 312 311 309 306 304 302 301 298 295 292 289 286 282 279 275 273 271 269 268 267 266 266
308 309 307 306 306 309 310 311 316 319 321 322 323 323 323 322 321 320 319 318 316 316 315 312 310 308 306 305 303 301 299 296 292 289 285 283 281 278 275 272 270 268 267 266
296 304 310 309 308 308 309 312 317 320 323 325 324 324 323 323 322 321 321 320 320 319 317 315 313 312 311 310 308 306 305 302 299 295 290 285 282 280 278 275 273 271 269 268
Height
5545 5544 5543 5543 5542 5540 5537 5538 5531 5542 5538 5547 5545 5550 5552 5555 5557 5556 5558 5560 5559 5559 5559 5559 5560 5561 5562 5564 5564 5571 5576 5578 5581 5580 5587 5596 5600 5604 5610 5616 5621 5624 5627 5630
5536 5533 5532 5532 5529 5527 5525 5525 5519 5521 5522 5528 5532 5539 5542 5547 5547 5550 5552 5554 5555 5554 5555 5556 5556 5556 5558 5560 5563 5567 5570 5572 5574 5576 5579 5586 5590 5598 5605 5608 5613 5616 5620 5625
5528 5525 5522 5522 5521 5519 5517 5512 5509 5506 5508 5510 5520 5528 5534 5542 5545 5546 5547 5549 5551 5551 5552 5553 5552 5552 5554 5556 5558 5561 5565 5568 5569 5572 5573 5576 5584 5584 5596 5601 5605 5610 5615 5619
5517 5514 5513 5512 5513 5510 5509 5506 5503 5496 5495 5501 5511 5520 5530 5536 5539 5541 5542 5544 5546 5548 5549 5550 5550 5550 5550 5551 5554 5557 5560 5563 5565 5567 5568 5572 5576 5579 5585 5593 5598 5602 5607 5612
5508 5506 5504 5504 5505 5505 5503 5503 5498 5495 5495 5500 5509 5518 5525 5530 5533 5537 5538 5540 5542 5544 5546 5547 5547 5547 5548 5548 5549 5552 5554 5557 5561 5564 5565 5569 5573 5577 5578 5584 5590 5595 5599 5604
5502 5498 5498 5501 5501 5501 5501 5499 5497 5495 5500 5504 5511 5517 5521 5526 5530 5533 5535 5537 5538 5539 5542 5543 5543 5544 5545 5546 5546 5547 5550 5552 5556 5559 5563 5565 5568 5570 5571 5579 5583 5587 5591 5594
5502 5501 5500 5499 5499 5499 5499 5501 5498 5499 5504 5509 5514 5516 5519 5523 5528 5530 5532 5534 5536 5536 5537 5538 5539 5539 5540 5542 5543 5543 5544 5546 5551 5555 5557 5559 5561 5564 5567 5572 5576 5578 5582 5584
5502 5500 5500 5497 5498 5499 5499 5498 5500 5503 5505 5508 5511 5515 5519 5523 5526 5529 5530 5532 5532 5533 5534 5534 5535 5536 5536 5538 5539 5540 5540 5541 5543 5546 5548 5551 5554 5554 5557 5562 5564 5565 5570 5574
5501 5500 5499 5498 5497 5498 5499 5500 5501 5505 5506 5510 5512 5516 5519 5521 5524 5526 5527 5528 5529 5530 5530 5530 5531 5532 5532 5532 5533 5535 5536 5537 5538 5539 5540 5542 5544 5546 5549 5552 5553 5554 5558 5561
5502 5502 5500 5500 5500 5500 5501 5502 5502 5505 5508 5511 5514 5516 5518 5520 5522 5523 5523 5524 5525 5526 5526 5526 5526 5526 5526 5527 5527 5528 5528 5529 5529 5530 5531 5532 5534 5536 5539 5541 5543 5544 5545 5548
5503 5502 5502 5502 5502 5502 5503 5503 5504 5507 5510 5512 5515 5516 5517 5519 5520 5520 5520 5521 5520 5519 5520 5521 5522 5521 5520 5520 5520 5520 5520 5519 5519 5520 5521 5523 5524 5525 5526 5526 5528 5528 5530 5531
5503 5503 5503 5503 5504 5504 5505 5506 5507 5510 5512 5514 5515 5515 5516 5517 5518 5518 5517 5516 5516 5516 5515 5515 5516 5516 5515 5514 5514 5514 5513 5512 5512 5512 5512 5513 5513 5514 5514 5514 5513 5514 5513 5516
5501 5502 5503 5503 5505 5505 5507 5508 5509 5511 5512 5514 5515 5515 5516 5516 5516 5515 5514 5513 5512 5511 5510 5510 5509 5509 5509 5508 5508 5507 5507 5506 5505 5504 5504 5503 5503 5504 5503 5502 5502 5503 5503 5503
5500 5501 5503 5504 5506 5507 5508 5509 5510 5511 5512 5513 5513 5513 5513 5514 5513 5513 5512 5510 5508 5507 5506 5505 5503 5502 5502 5501 5501 5500 5499 5497 5496 5495 5495 5495 5494 5493 5493 5493 5493 5492 5493 5493
5498 5500 5502 5504 5505 5507 5507 5508 5509 5510 5510 5511 5511 5511 5511 5511 5509 5508 5507 5505 5504 5502 5499 5498 5497 5496 5496 5494 5492 5491 5490 5489 5487 5486 5485 5484 5483 5483 5482 5482 5482 5482 5483 5483
5496 5497 5499 5502 5504 5505 5506 5508 5509 5509 5510 5510 5509 5510 5509 5508 5507 5506 5504 5502 5500 5497 5494 5493 5491 5490 5488 5485 5483 5481 5479 5478 5477 5475 5474 5473 5472 5471 5470 5469 5469 5469 5469 5469
5493 5495 5496 5498 5501 5503 5504 5505 5506 5507 5507 5507 5507 5507 5506 5504 5502 5500 5498 5495 5492 5490 5487 5486 5483 5480 5478 5475 5472 5470 5467 5465 5462 5460 5459 5458 5456 5455 5455 5454 5454 5453 5453 5452
5489 5490 5492 5495 5497 5500 5501 5503 5504 5505 5504 5504 5504 5503 5501 5498 5496 5494 5492 5489 5486 5483 5481 5477 5474 5471 5467 5464 5461 5457 5454 5451 5448 5445 5442 5440 5438 5437 5436 5435 5435 5435 5435 5434
5484 5486 5490 5494 5497 5498 5500 5501 5502 5502 5502 5501 5499 5497 5495 5494 5491 5489 5486 5482 5479 5475 5471 5467 5463 5459 5454 5450 5446 5441 5437 5434 5430 5427 5423 5421 5418 5416 5415 5413 5413 5412 5412 5413
5485 5486 5489 5493 5495 5497 5498 5499 5499 5498 5497 5496 5495 5493 5491 5488 5485 5481 5477 5473 5468 5464 5459 5454 5449 5444 5439 5433 5428 5422 5417 5413 5408 5404 5400 5397 5394 5392 5390 5389 5388 5387 5387 5388
5486 5488 5491 5493 5494 5495 5496 5497 5496 5495 5494 5493 5490 5487 5483 5479 5475 5470 5466 5461 5455 5449 5444 5438 5432 5426 5419 5413 5406 5400 5395 5389 5384 5379 5375 5371 5368 5365 5364 5363 5362 5362 5362 5362
5487 5489 5490 5492 5493 5494 5494 5493 5493 5491 5489 5486 5482 5479 5475 5470 5465 5459 5454 5448 5441 5434 5427 5420 5413 5405 5397 5390 5382 5375 5368 5363 5358 5353 5349 5346 5343 5341 5339 5338 5338 5338 5338 5339
5487 5488 5489 5490 5491 5491 5490 5490 5488 5486 5483 5479 5475 5470 5465 5459 5453 5446 5440 5432 5424 5416 5409 5401 5391 5382 5373 5364 5356 5348 5342 5336 5331 5326 5322 5320 5318 5316 5314 5313 5313 5313 5314 5315
5486 5487 5487 5488 5488 5488 5486 5484 5482 5479 5475 5471 5466 5460 5454 5448 5441 5433 5425 5416 5407 5399 5389 5378 5367 5357 5346 5337 5329 5321 5315 5310 5306 5302 5299 5297 5295 5294 5293 5292 5291 5291 5291 5291
5484 5485 5485 5485 5484 5483 5481 5478 5475 5471 5467 5461 5455 5448 5441 5434 5426 5417 5407 5398 5388 5377 5366 5354 5342 5330 5320 5312 5305 5300 5295 5290 5287 5284 5281 5278 5277 5275 5274 5273 5272 5272 5272 5272
5482 5483 5482 5481 5479 5477 5474 5471 5467 5462 5456 5450 5443 5435 5427 5419 5410 5400 5390 5380 5369 5356 5343 5330 5319 5309 5301 5295 5289 5283 5279 5274 5271 5267 5264 5262 5259 5258 5256 5255 5254 5254 5254 5254
5479 5478 5477 5475 5473 5470 5467 5463 5458 5452 5445 5438 5430 5422 5413 5404 5394 5383 5372 5360 5347 5334 5321 5310 5301 5293 5286 5280 5275 5270 5265 5261 5256 5253 5249 5246 5244 5241 5239 5238 5237 5236 5236 5236